Theta_e
326 319 312 317 309 310 306 301 296 293 291 287 284 289 293 296 297 297 298 298 299 303 303 310 309 308 306 305 307 307 310 307 304 296 293 304 323 335 335 337 335 334 334 332 331 331 333 343 345 345 345 343 340 339 340 343 346 346 346 346 346 346 346 346 346 346 344 340 337 338 341 341 341 341 342 341 340 340 340 339 339 341 342 343 344 344 343 343 343 344 344 346 345 345 345 345 344
319 313 310 311 312 306 303 298 291 285 286 284 287 288 290 293 298 296 296 296 298 308 309 313 315 315 314 314 314 312 310 316 308 315 323 328 335 335 337 336 335 333 332 331 331 329 331 341 345 345 345 343 340 338 336 342 347 346 347 346 346 345 345 345 345 343 341 340 341 340 339 339 339 339 338 338 339 339 340 339 339 340 342 343 343 343 343 343 343 344 344 345 344 344 344 343 343
316 311 312 311 309 302 299 298 296 283 284 285 283 289 290 295 295 296 295 297 305 312 311 311 310 309 309 308 306 306 303 324 323 325 326 333 329 332 337 336 334 333 332 330 331 329 330 338 344 345 345 343 338 337 337 338 345 346 346 345 344 344 342 342 342 339 337 342 341 341 340 340 340 340 339 339 339 339 339 340 339 340 341 343 343 343 343 343 343 343 343 344 344 344 343 343 343
314 314 309 307 306 300 294 290 289 285 289 284 283 287 290 294 295 296 296 300 310 308 305 309 309 310 309 306 307 312 314 319 326 326 325 329 330 336 338 336 334 333 332 331 330 328 330 338 344 344 345 342 339 339 339 339 340 342 344 343 342 342 341 341 339 337 336 337 336 340 337 335 337 337 339 339 340 340 340 340 340 340 340 340 341 341 341 341 342 342 342 343 343 344 343 343 343
314 315 308 304 301 301 292 289 286 285 287 284 290 288 290 292 297 296 302 303 306 300 300 306 307 311 312 311 309 305 308 320 327 328 329 331 336 338 337 335 333 332 332 331 330 328 332 340 343 344 344 342 340 340 339 338 338 339 341 341 341 342 341 340 338 339 341 341 340 341 341 342 343 343 343 342 342 342 342 341 341 341 340 341 340 340 343 343 343 343 343 342 343 343 342 342 342
310 308 309 305 303 303 296 291 291 288 287 287 290 290 290 293 298 299 304 301 301 298 300 303 306 306 310 312 312 312 320 316 326 326 330 331 337 339 337 334 332 332 331 329 328 328 329 339 343 344 345 343 341 340 339 338 336 340 342 340 339 339 340 338 339 340 342 342 343 343 344 343 344 344 343 343 343 342 342 342 341 341 341 341 341 342 344 344 343 343 342 342 342 342 342 341 341
311 302 301 303 298 299 292 288 285 287 291 290 292 291 294 294 300 300 299 301 301 305 302 309 308 309 308 309 315 321 320 321 324 324 330 335 338 338 337 333 332 331 330 328 329 328 330 339 343 345 345 344 344 341 340 338 336 338 338 338 340 342 341 341 342 342 344 344 344 343 343 342 342 342 342 341 341 341 340 341 341 341 341 341 340 341 341 342 342 342 342 342 342 341 341 340 340
311 306 301 293 291 292 288 286 287 287 292 291 291 295 295 299 298 298 298 299 300 302 308 309 305 304 306 311 308 316 318 321 324 328 334 337 338 337 336 333 332 332 330 329 328 329 339 338 342 344 345 345 345 342 339 338 338 338 338 336 340 344 344 344 344 343 342 342 340 340 340 340 339 340 340 340 340 339 339 339 340 339 339 340 340 340 340 341 341 342 342 341 341 340 339 339 339
306 305 300 296 290 288 285 288 287 288 290 290 291 294 304 299 299 299 297 297 300 301 306 307 303 301 303 308 306 313 316 323 330 333 336 337 336 337 335 332 332 332 331 331 329 329 331 338 340 344 344 345 345 343 339 338 338 338 338 337 341 344 344 344 342 341 340 339 338 338 338 339 339 340 340 340 339 340 339 340 339 339 339 339 339 339 340 340 340 341 340 340 340 340 339 339 338
303 303 296 293 290 291 284 283 289 290 290 291 295 298 299 298 298 297 297 299 301 304 305 301 302 300 305 308 307 314 317 326 332 333 336 336 337 337 333 331 333 333 334 333 329 329 331 341 337 340 342 344 345 345 342 341 338 338 337 337 342 343 343 342 340 339 337 336 338 338 339 339 340 340 340 340 339 339 339 339 339 338 338 338 338 338 338 339 340 340 340 340 340 339 339 338 337
298 298 297 294 286 286 287 283 284 288 290 291 295 296 299 298 297 295 296 298 300 302 301 306 307 307 308 308 307 312 318 328 331 329 335 336 337 335 332 331 334 335 334 333 329 331 331 333 339 337 340 341 343 344 343 342 339 338 337 337 338 343 342 339 337 337 336 336 338 339 339 339 339 339 339 339 339 339 339 338 338 338 338 338 338 338 338 338 339 340 339 339 338 337 337 337 336
297 294 295 286 287 286 284 287 286 288 290 293 299 299 297 298 296 298 297 301 299 300 303 306 306 308 306 306 309 313 321 327 329 332 334 335 335 334 331 332 334 335 335 335 336 335 330 331 333 339 336 337 340 341 340 341 341 340 339 337 338 338 337 336 339 337 336 337 338 338 339 339 338 338 338 338 339 338 338 338 338 338 338 337 338 338 338 338 339 339 338 337 336 336 337 336 336
295 295 291 289 290 290 288 288 289 292 290 291 297 300 297 297 297 296 297 298 298 301 301 303 311 307 303 305 306 312 321 326 327 332 333 334 334 334 330 332 333 335 335 336 337 335 330 328 330 331 332 334 335 335 336 337 339 340 340 341 340 339 342 340 341 342 343 343 339 339 339 339 340 341 339 338 339 338 337 338 337 337 337 338 338 338 338 339 338 338 336 335 334 335 336 336 335
297 295 294 293 288 288 288 288 285 291 288 294 293 295 298 298 295 296 297 299 297 300 302 304 312 310 308 307 309 311 319 323 325 330 331 331 333 334 330 332 332 334 335 336 335 335 332 329 329 328 329 330 331 332 332 335 337 339 339 339 341 342 342 342 341 341 341 341 340 340 340 340 339 339 339 339 339 338 338 338 339 338 337 338 338 337 338 337 337 337 335 334 333 333 334 335 334
303 297 291 288 287 288 288 290 289 287 290 293 297 296 297 298 294 295 301 298 299 299 308 311 311 302 299 308 303 313 320 323 326 328 330 332 334 332 330 331 332 332 335 335 334 335 335 333 332 330 326 327 327 328 328 331 332 335 337 338 339 339 339 338 338 336 337 338 338 337 336 335 334 334 335 335 335 335 334 332 336 337 336 336 336 336 336 336 336 335 335 334 333 333 333 333 333
300 295 292 292 289 288 290 289 286 288 291 292 295 294 298 296 295 298 298 300 299 306 308 310 308 303 303 307 306 318 322 322 326 328 331 333 333 331 330 330 330 331 333 333 333 335 336 335 334 331 328 325 325 326 326 327 330 330 333 334 335 335 335 334 333 331 330 330 331 331 329 328 327 327 328 329 330 332 331 329 332 335 336 335 335 335 336 335 335 335 335 333 332 331 330 331 331
300 297 294 287 289 289 292 290 288 291 289 291 292 296 299 296 295 297 298 302 305 306 306 308 307 311 309 308 311 320 322 324 325 330 331 331 330 328 329 328 329 329 331 331 332 334 335 335 334 332 330 329 329 330 330 328 327 328 328 329 330 331 331 331 329 325 323 323 324 323 324 323 322 323 324 323 324 324 324 326 330 335 336 334 335 334 335 335 335 335 335 333 332 328 325 324 325
301 292 287 289 287 289 293 292 290 292 293 295 292 294 299 295 294 299 304 304 302 306 307 309 311 310 311 310 313 322 322 324 327 329 329 328 329 326 326 326 327 325 327 328 331 332 333 334 334 334 332 330 331 331 332 331 328 328 324 324 325 326 325 324 322 321 325 319 321 321 322 322 320 319 321 327 321 323 323 324 328 332 334 333 335 334 334 334 335 335 334 332 330 324 318 314 313
296 291 290 290 289 293 296 292 292 293 294 294 294 292 297 297 296 297 299 297 304 304 304 305 309 309 313 314 320 321 323 324 327 329 328 327 327 325 325 325 325 326 325 327 328 330 332 333 334 333 333 332 331 331 331 331 330 325 323 322 322 322 324 321 320 319 318 317 316 318 318 318 318 319 319 320 320 321 322 324 327 329 330 330 332 333 333 333 334 333 331 329 326 320 313 312 312
296 292 290 287 293 294 295 292 294 291 294 294 294 294 293 295 297 297 298 295 300 303 301 303 305 309 309 314 318 320 322 324 327 328 328 327 328 327 326 325 324 325 325 326 327 330 331 331 332 334 333 332 331 331 330 330 330 326 322 320 319 319 319 319 318 316 316 316 316 317 317 316 317 317 325 325 324 318 319 321 324 324 326 324 324 321 324 324 325 326 325 322 318 313 311 312 311
298 293 289 293 292 292 294 293 292 291 292 294 293 291 293 293 296 297 295 300 299 301 302 305 307 309 311 315 318 320 321 324 326 328 327 327 328 328 328 327 325 325 326 328 328 329 330 329 331 332 333 333 332 331 329 328 329 326 322 320 319 318 317 316 317 316 314 315 314 317 316 316 317 317 317 317 317 316 316 316 315 315 316 314 317 315 313 313 313 312 312 313 312 311 312 311 311
296 294 294 294 292 292 294 293 291 290 290 293 291 294 294 294 295 296 299 297 297 301 305 305 308 312 313 316 318 319 320 322 325 326 326 327 327 327 328 328 328 327 326 326 327 328 330 330 330 330 332 332 332 331 330 328 328 326 326 325 320 317 317 317 315 317 316 315 314 315 316 317 317 317 315 315 314 313 315 314 314 314 312 313 313 312 311 310 309 308 310 310 311 310 310 309 307
292 291 292 292 292 291 293 293 292 292 294 293 292 294 294 296 294 294 298 299 298 293 298 305 309 315 317 319 319 319 320 321 323 324 326 327 327 328 328 329 327 327 328 327 327 329 330 330 330 330 330 331 331 332 331 329 328 327 326 325 324 320 317 318 317 316 317 316 315 315 317 316 318 319 317 314 314 312 314 313 314 313 312 313 314 313 309 309 309 310 309 310 307 310 312 309 308
293 292 291 291 291 292 293 293 292 289 293 294 293 294 295 294 295 293 297 299 294 294 292 303 311 315 317 317 318 319 320 321 322 324 326 327 328 328 329 329 329 330 329 328 329 330 329 330 330 330 329 330 330 331 330 329 328 327 324 323 324 321 320 320 319 318 317 318 316 317 316 317 318 317 316 314 313 311 314 312 312 313 312 312 314 311 312 309 309 308 308 309 309 307 310 310 308
293 293 292 291 291 292 292 291 290 290 290 292 293 294 294 294 294 292 296 299 296 298 308 311 314 315 316 318 318 319 319 320 321 322 324 327 328 329 330 331 330 330 328 329 330 330 330 330 331 330 329 329 330 330 328 329 329 328 325 324 324 322 322 321 320 318 318 318 317 317 315 316 315 317 316 316 312 315 312 312 312 313 311 311 312 312 311 309 307 306 306 307 306 307 304 309 307
293 293 293 291 292 293 291 292 292 291 292 292 294 292 292 292 293 293 296 296 295 305 310 312 314 314 315 317 318 318 319 319 320 320 322 324 327 328 328 329 330 329 329 329 329 330 332 332 331 330 330 329 330 330 328 328 328 328 328 325 324 321 322 322 319 319 318 318 318 318 317 318 317 317 316 312 314 314 312 312 313 312 311 311 312 313 309 309 309 307 306 306 306 306 308 308 306
295 295 296 294 293 292 292 293 290 290 292 292 295 292 293 292 293 295 293 293 303 309 311 311 313 314 315 316 317 318 319 319 320 321 319 321 325 326 327 328 328 329 330 329 330 330 331 332 332 331 331 329 331 330 329 327 327 328 328 328 325 322 322 321 320 320 319 319 320 318 318 318 318 317 316 315 314 314 313 312 313 310 311 311 311 313 308 311 308 309 308 308 307 306 308 305 306
300 298 301 302 297 295 291 290 291 293 294 289 293 293 291 292 293 296 294 296 302 305 311 313 312 312 314 315 316 317 318 320 320 319 320 320 323 325 326 326 327 328 328 328 329 331 331 332 332 333 333 331 330 330 329 328 327 327 328 328 327 324 322 322 321 320 319 320 319 319 318 318 317 317 317 316 316 314 313 313 312 311 314 310 311 312 310 309 309 309 307 307 306 306 306 305 304
298 298 301 298 297 297 293 292 292 292 293 291 291 293 291 291 292 297 291 297 299 304 309 313 312 311 313 314 315 316 318 318 318 319 321 322 324 325 325 327 327 327 328 329 329 329 330 331 332 333 333 332 331 331 331 330 327 325 324 325 325 324 323 322 321 321 321 319 319 319 318 318 317 318 317 317 315 315 314 313 311 313 314 312 311 310 310 308 308 308 309 306 307 306 306 309 306
297 295 294 297 295 295 295 292 291 292 294 290 293 286 285 291 295 293 291 300 300 301 305 311 312 311 312 313 314 315 315 315 317 319 321 322 322 323 323 325 326 326 326 326 326 326 328 331 332 333 333 333 332 333 332 331 330 327 325 325 324 323 323 322 321 321 321 320 319 319 319 318 317 318 317 315 315 315 314 313 313 313 313 311 311 309 311 309 309 308 310 307 310 308 311 312 310
296 296 292 292 290 290 292 292 292 292 292 290 292 287 286 290 294 293 294 300 300 300 304 308 309 309 311 312 313 314 315 317 318 319 320 321 322 323 323 323 323 324 323 324 325 326 326 328 330 332 331 333 331 332 332 332 331 328 326 325 324 324 323 323 322 321 320 321 320 319 319 318 317 317 316 317 315 314 314 312 313 315 313 311 311 310 312 310 312 314 311 311 311 311 312 312 311
294 295 292 288 288 290 291 293 291 291 292 290 292 286 290 294 294 290 289 299 297 298 300 305 307 309 310 311 313 315 316 317 317 318 319 320 321 322 322 323 323 323 324 324 324 325 326 327 327 330 330 332 332 332 333 333 332 330 328 324 325 324 323 323 322 322 321 321 320 320 319 319 318 317 316 315 315 314 314 314 315 313 312 312 312 313 315 315 315 314 313 314 314 315 314 314 311
292 293 287 287 284 287 288 292 290 291 291 293 291 287 285 290 291 287 287 298 299 297 297 301 306 308 309 311 312 314 315 315 317 319 319 319 320 321 322 322 323 323 324 324 324 324 325 325 325 327 328 330 332 332 333 332 332 330 328 326 326 325 324 324 323 323 321 320 320 320 320 320 319 318 318 317 317 315 315 316 316 315 315 316 315 315 315 317 316 315 313 310 313 315 314 313 312
289 287 288 287 286 286 286 289 291 291 291 289 291 288 287 289 289 287 290 295 296 297 297 298 303 307 309 310 311 312 312 313 315 318 319 320 321 321 322 320 322 323 323 324 324 325 325 325 325 326 328 328 331 332 331 332 331 330 328 326 323 325 325 325 324 323 322 322 320 320 320 320 320 321 321 320 320 320 320 320 320 319 319 319 318 317 317 316 315 314 314 313 313 313 310 311 312
288 286 286 288 285 286 288 289 291 291 290 288 288 287 290 294 294 291 289 291 296 297 298 296 299 303 306 308 309 310 312 312 314 317 318 319 319 320 321 321 321 322 323 323 324 324 324 324 324 324 326 327 328 330 330 331 330 329 328 327 326 326 325 324 324 323 323 322 322 322 322 322 321 323 323 322 322 321 320 320 320 320 319 316 316 316 316 316 315 315 315 315 308 309 309 310 311
292 289 290 288 287 288 286 290 289 292 289 288 287 288 291 293 294 294 289 289 293 295 293 291 292 298 302 305 306 308 310 312 315 315 315 317 319 319 320 321 322 322 323 323 322 322 322 323 323 324 324 327 327 327 328 329 328 327 325 324 324 325 326 324 324 324 323 323 323 324 325 325 324 324 324 323 323 322 321 321 321 320 320 318 315 313 313 313 315 313 312 311 309 306 307 308 305
293 290 288 287 287 287 287 288 290 290 290 288 287 287 290 293 294 294 290 288 289 289 291 293 293 294 297 301 303 305 307 310 313 313 312 313 316 319 320 321 321 321 322 322 322 322 322 323 322 323 324 325 326 326 327 328 326 326 326 326 325 326 325 325 325 325 324 323 324 326 326 326 326 324 324 324 323 321 322 322 321 320 319 318 318 317 316 315 316 314 313 309 311 306 307 306 307
292 288 286 286 286 284 287 289 290 290 290 286 285 286 288 290 293 293 287 288 289 290 291 292 293 293 294 296 299 300 303 305 303 304 307 310 314 316 318 319 318 319 320 321 321 322 322 322 322 323 324 324 325 326 327 327 329 328 327 327 327 325 324 324 325 325 325 324 325 327 327 327 327 326 324 325 324 324 323 322 321 321 318 318 318 316 314 311 312 314 313 310 304 308 309 306 307
289 288 286 285 285 286 288 287 288 289 289 288 286 286 287 290 293 294 289 290 290 291 292 293 293 293 292 292 294 297 298 299 299 301 304 308 310 312 316 318 320 321 321 321 322 322 322 322 322 322 323 324 325 326 326 326 327 327 328 326 327 321 320 324 326 325 325 326 326 327 327 327 327 327 326 325 325 324 324 323 323 322 321 319 316 313 313 315 314 311 308 311 309 306 310 307 308
288 286 284 285 286 285 286 289 288 289 288 286 285 284 287 290 291 291 291 289 290 291 291 293 293 293 293 294 294 295 295 297 299 300 300 303 307 310 313 316 318 320 320 320 320 321 322 321 322 322 323 324 325 325 324 326 325 325 323 321 323 324 320 316 319 318 323 323 324 324 324 325 326 326 326 326 326 326 324 323 323 322 322 320 320 317 312 314 315 313 312 312 313 312 309 310 310
289 288 285 285 286 286 286 286 288 288 287 287 286 285 287 289 290 291 290 288 289 291 289 290 291 292 295 295 294 294 295 296 297 298 299 300 303 307 311 315 317 318 320 320 320 321 322 322 322 323 323 324 325 324 323 324 321 319 318 315 315 316 315 315 317 318 321 320 322 323 324 324 325 325 326 326 324 327 326 324 323 323 321 319 318 318 316 317 316 314 314 313 312 314 314 311 308
289 289 288 286 286 286 286 287 287 285 283 286 287 279 280 283 286 289 292 287 287 288 289 291 291 291 292 292 294 295 295 295 296 297 298 299 301 304 308 311 314 317 318 320 322 322 322 322 322 323 324 324 324 324 324 323 322 323 321 323 320 321 322 319 319 321 318 319 321 321 322 323 323 323 323 324 324 324 325 325 324 322 320 320 318 318 319 314 313 315 315 313 314 314 315 312 309
288 289 290 289 289 289 289 287 286 280 281 286 286 283 280 282 286 288 288 287 289 288 288 291 291 291 290 292 294 295 295 295 295 295 295 295 298 300 305 310 313 315 318 320 321 321 321 322 322 323 323 324 324 324 323 321 323 323 323 324 324 323 323 324 320 320 323 321 321 322 323 321 322 323 323 323 323 323 325 325 325 324 323 321 318 319 319 319 318 317 316 315 316 314 312 312 312
287 290 290 290 289 290 289 289 287 284 284 286 285 285 279 280 287 289 284 283 286 287 288 289 290 291 291 292 293 294 295 295 296 296 296 296 297 299 302 307 312 314 317 318 319 320 320 321 321 322 322 322 323 323 323 323 323 323 322 323 322 323 323 323 319 319 320 318 321 321 321 320 320 322 323 323 324 324 324 325 324 323 322 321 319 319 320 319 317 317 314 315 314 313 313 312 312
290 290 291 290 291 290 289 289 286 284 283 281 284 284 280 278 282 283 284 287 288 288 288 288 291 292 292 293 294 294 295 296 296 296 296 295 296 297 301 303 309 313 314 316 318 319 320 321 320 320 321 321 321 321 321 322 322 324 323 323 322 321 321 319 310 311 316 314 318 315 317 318 318 319 321 322 323 324 323 324 324 323 322 321 316 318 316 316 315 315 312 312 312 311 312 312 311
291 292 292 291 290 289 289 286 286 284 282 280 283 283 279 281 279 283 282 283 286 288 288 289 290 292 293 294 294 295 295 294 293 294 295 295 295 296 298 300 304 310 313 314 316 317 318 319 319 319 320 321 321 320 320 321 322 321 322 322 321 320 315 307 308 310 313 310 316 313 314 314 314 315 316 318 320 321 323 322 321 321 320 318 314 316 316 315 313 313 313 312 311 311 310 311 311
292 291 290 290 288 286 285 284 284 284 277 282 284 282 282 278 281 286 286 286 286 287 288 288 289 290 291 292 293 295 295 294 293 293 293 294 293 293 294 298 301 305 309 312 313 315 317 318 318 318 320 320 319 320 320 320 322 322 322 321 321 320 315 314 311 310 309 307 313 310 309 312 311 313 312 313 316 317 319 317 319 319 317 312 314 315 315 314 312 311 311 310 310 310 309 309 308
293 290 287 289 286 287 285 284 284 279 279 281 280 281 281 278 279 282 286 284 282 290 290 291 292 292 293 291 290 291 291 291 291 291 293 293 292 291 292 295 298 302 305 309 311 312 313 315 317 317 317 318 318 318 318 320 321 321 321 321 321 320 316 315 315 315 309 310 312 311 308 306 305 307 310 312 313 315 316 316 314 315 314 315 315 314 313 313 312 312 312 311 310 310 310 308 307
291 289 288 284 280 282 278 281 278 279 278 279 277 280 280 280 284 285 285 285 285 283 286 289 290 290 290 290 289 289 289 289 290 291 292 292 293 293 293 295 297 300 305 308 309 311 312 313 315 316 316 316 316 317 317 319 319 320 321 320 320 319 317 316 316 316 312 314 312 312 307 308 304 306 309 313 312 314 313 313 312 312 311 312 313 313 313 312 312 311 311 310 310 310 310 309 309
289 287 285 283 278 277 276 278 274 276 280 280 280 281 280 284 281 287 290 294 293 291 288 287 288 289 290 291 290 289 290 290 292 292 292 292 293 293 293 294 296 299 302 306 307 309 311 312 313 315 316 315 314 315 317 317 318 319 320 320 320 318 316 316 316 316 312 313 312 313 311 310 308 313 311 313 313 310 308 309 310 311 311 311 310 311 311 310 310 310 310 309 308 308 308 308 307
289 290 288 285 282 277 275 277 277 278 280 279 280 279 279 279 284 284 287 289 288 286 286 287 287 287 288 288 288 289 290 291 292 292 293 293 293 293 294 294 295 297 300 302 304 307 309 310 311 313 314 312 313 314 315 317 317 317 318 319 319 317 317 316 316 315 312 311 310 312 312 312 312 310 312 310 307 308 307 306 307 310 309 309 308 308 308 307 307 307 307 306 305 306 305 305 304
290 290 291 283 284 283 278 275 277 274 276 276 276 281 281 284 284 286 284 285 286 287 288 286 288 288 287 289 291 292 293 293 292 292 293 294 294 294 294 294 295 296 297 299 301 304 306 309 310 312 314 313 312 312 315 316 316 316 316 316 316 315 313 314 312 309 310 311 310 312 311 310 310 308 306 304 303 304 302 303 305 307 309 310 309 308 307 306 305 304 304 304 303 303 303 302 301
286 287 284 286 287 285 278 277 277 276 273 275 276 279 283 283 286 291 283 282 287 286 286 286 287 288 287 290 292 293 293 293 292 292 293 293 292 292 293 293 294 294 296 298 300 301 304 306 307 309 310 309 310 311 314 315 315 314 314 315 314 313 313 313 312 309 309 308 308 309 309 307 307 307 303 303 300 302 303 305 305 304 305 307 306 306 307 306 305 303 302 303 302 301 301 300 301
286 283 286 287 288 287 284 278 274 274 272 274 275 280 279 279 281 283 283 284 286 287 288 287 286 286 287 291 292 293 294 293 292 291 290 291 291 292 293 292 292 293 294 294 296 296 299 302 305 307 307 307 308 310 312 313 314 313 313 313 313 314 313 312 311 309 307 306 306 307 306 306 306 305 303 301 300 299 299 298 300 299 298 299 299 296 297 300 301 300 301 300 300 299 298 297 296
289 286 290 288 281 281 281 280 276 272 270 272 272 276 276 281 283 283 284 284 285 289 289 287 289 287 288 290 291 291 290 291 291 291 291 291 291 292 292 293 292 292 292 293 294 295 295 296 299 304 306 307 307 308 310 311 313 313 313 312 312 311 311 311 309 308 307 308 307 307 308 306 302 300 299 298 297 296 294 294 295 294 294 294 293 293 295 296 297 296 296 295 295 296 294 293 294
287 287 286 286 284 281 278 280 275 277 275 269 274 271 280 282 281 282 288 290 289 288 287 289 288 289 289 290 291 291 291 291 291 292 292 292 291 290 291 292 293 294 293 294 294 293 296 297 298 300 302 303 304 306 307 310 311 311 309 308 308 309 309 309 307 307 307 308 307 307 305 303 302 299 299 297 295 293 293 292 291 292 291 290 290 290 291 291 292 291 290 290 287 290 291 292 292
283 283 282 285 284 285 284 282 280 278 270 269 270 273 279 281 284 286 288 289 292 294 289 287 288 290 290 290 290 290 290 291 290 290 292 292 292 291 290 290 291 291 292 293 295 296 296 296 297 299 303 304 305 307 307 310 309 309 308 308 308 308 307 307 306 307 307 306 306 304 305 302 297 296 294 294 293 293 292 291 291 291 291 290 290 288 289 290 289 288 288 288 288 290 291 291 290
286 285 284 286 283 282 279 278 279 276 278 273 268 276 282 283 282 287 288 289 290 287 285 287 289 289 290 290 290 289 290 290 290 289 289 291 290 290 290 291 292 293 294 295 296 296 295 295 297 299 303 304 305 305 307 307 308 308 308 308 307 307 307 307 307 306 305 304 303 302 299 297 297 291 294 293 292 290 289 290 291 290 290 290 291 292 290 291 292 292 291 293 291 291 289 285 284
Wind_Speed
6 4 2 1 2 1 2 7 1 3 3 0 1 1 1 0 1 1 1 2 0 1 1 1 1 4 1 3 6 4 1 5 5 6 3 2 1 6 6 8 6 5 5 3 3 2 1 5 10 9 10 10 10 8 8 10 12 11 10 11 15 15 14 15 16 15 15 15 13 14 15 15 15 15 15 15 15 16 15 14 15 16 17 17 17 17 18 18 17 18 18 17 18 18 18 18 18
4 2 2 0 1 2 1 2 4 3 6 3 3 1 1 2 1 3 5 3 2 1 1 5 7 7 8 10 8 3 3 2 3 1 3 2 6 7 8 9 8 9 4 3 3 3 3 5 8 9 10 9 10 7 4 10 12 12 11 12 13 14 13 15 16 14 14 14 15 14 14 14 14 14 13 14 15 15 15 14 14 16 17 17 17 17 17 17 17 17 17 17 18 17 17 18 18
2 3 2 3 3 5 2 4 1 1 3 1 3 5 2 2 3 4 4 2 3 5 3 3 4 3 1 2 3 2 1 2 3 2 4 6 11 7 8 7 6 7 6 4 4 3 3 4 7 10 10 10 12 8 6 7 12 12 11 12 13 12 12 13 14 13 12 14 14 14 14 14 14 15 15 15 15 15 15 14 13 14 16 16 17 17 17 16 16 16 16 17 17 17 17 17 17
1 3 2 3 2 4 1 4 4 4 1 2 3 3 1 4 4 4 2 3 5 3 0 0 3 1 0 4 1 1 3 3 0 5 6 8 2 9 9 8 7 6 5 4 4 3 3 4 8 11 9 11 13 11 8 7 8 11 12 11 11 12 12 12 12 12 12 12 12 14 12 13 13 14 14 13 13 14 15 15 14 13 14 15 15 15 15 15 16 16 16 16 17 17 17 16 16
1 1 2 3 2 2 2 0 3 2 1 4 1 2 4 4 4 3 3 2 3 1 1 1 3 3 0 3 0 0 3 1 4 1 3 2 5 9 10 7 6 6 5 4 3 3 2 5 7 8 8 11 11 11 9 8 8 8 10 11 12 13 13 12 11 12 13 13 13 13 13 12 13 14 14 14 14 14 14 15 14 14 14 15 15 15 15 15 16 16 16 16 16 16 16 16 16
3 1 4 2 0 2 4 1 1 0 4 5 0 2 4 6 6 5 4 1 3 2 2 1 3 4 1 2 1 1 2 5 3 1 4 4 9 11 10 7 6 6 5 4 3 3 2 6 7 7 8 6 12 12 11 8 8 10 11 10 10 11 12 12 12 12 11 12 12 13 13 13 14 14 15 14 13 14 14 14 14 14 13 14 14 16 16 16 16 16 15 15 15 16 15 16 16
1 3 5 3 2 3 3 2 2 3 4 5 1 2 6 5 5 6 3 1 1 0 3 0 3 5 4 1 1 1 1 1 3 2 2 7 9 10 9 7 7 6 5 3 3 3 2 5 6 9 9 8 8 10 11 10 7 8 9 9 10 10 12 12 12 12 13 13 13 14 13 13 13 14 14 13 13 13 13 14 14 13 13 13 14 14 15 15 16 16 16 15 16 16 16 16 15
2 1 2 1 1 3 2 1 3 5 1 5 1 2 4 8 5 5 6 3 2 1 0 1 1 3 1 3 2 2 2 1 2 6 8 9 9 9 8 7 8 6 4 3 3 3 3 4 5 8 10 11 8 9 11 10 8 7 8 8 9 11 10 11 12 12 12 13 13 13 12 12 12 12 12 13 13 13 13 13 13 13 13 14 14 14 14 14 15 15 16 16 16 16 15 15 15
5 7 1 4 1 3 2 1 3 2 6 1 5 5 2 4 6 6 5 2 1 0 4 3 2 1 2 1 1 2 3 2 5 10 9 10 11 10 7 7 9 7 5 4 3 3 2 3 4 7 9 9 8 8 10 11 9 7 8 8 10 10 12 12 12 12 11 11 12 12 12 12 12 12 13 13 13 13 13 13 12 12 12 13 13 13 13 14 14 14 15 15 15 14 14 14 13
2 2 1 2 3 1 3 3 1 1 2 2 2 1 5 4 4 2 4 1 2 5 4 2 1 2 3 3 1 1 1 0 8 11 9 9 9 8 7 6 7 10 7 5 3 3 2 4 5 5 7 7 6 6 6 10 10 9 8 8 11 11 11 12 11 11 10 10 11 11 11 12 12 11 11 11 12 12 12 12 12 11 11 12 12 12 13 12 13 14 14 14 14 13 13 12 12
1 5 2 2 2 1 2 3 3 4 2 4 3 3 3 4 4 2 0 2 1 4 2 2 4 4 3 2 2 3 1 3 10 12 11 9 8 8 7 6 6 8 9 6 3 3 2 2 5 4 6 7 6 5 6 7 10 10 8 7 8 12 11 9 10 10 9 10 11 11 11 11 11 11 11 11 11 11 11 11 11 11 11 11 12 12 12 12 13 14 14 13 12 12 11 11 10
1 2 2 3 2 3 3 2 3 7 7 1 1 0 2 5 2 3 1 5 3 0 3 3 3 6 5 1 1 2 1 5 7 9 10 9 7 6 5 5 8 8 8 6 4 3 3 2 2 3 6 7 6 5 6 6 7 9 8 7 6 6 8 8 10 9 8 10 11 10 10 11 10 11 10 10 9 10 11 10 11 11 11 11 11 11 11 12 12 13 13 12 11 10 10 9 10
3 1 5 3 0 1 0 0 2 3 4 3 3 1 4 5 3 3 3 1 2 4 3 6 5 3 3 3 3 2 4 7 3 10 10 9 7 6 5 6 8 8 8 6 6 5 2 3 2 2 4 6 5 5 5 7 6 7 7 6 6 4 4 9 12 11 11 10 10 10 10 10 9 9 8 8 8 9 9 8 9 10 10 10 10 10 11 11 12 13 12 12 11 10 9 9 8
3 3 4 1 1 1 2 1 1 1 3 1 1 2 4 3 3 5 5 4 3 5 1 3 4 5 2 2 2 2 6 5 4 8 8 7 6 7 7 6 8 8 7 7 7 5 3 3 3 3 3 3 2 3 5 8 6 6 6 6 7 8 8 11 11 10 9 9 10 11 10 10 11 10 11 11 10 9 7 6 7 8 9 9 9 9 10 9 10 11 11 11 11 10 9 8 8
1 1 5 4 1 1 2 1 1 2 2 1 2 6 2 1 3 4 7 5 7 2 2 1 3 1 4 7 4 8 8 7 7 6 8 7 7 7 7 6 6 6 8 6 7 6 5 3 3 3 3 3 2 2 2 4 7 7 8 8 8 8 8 10 11 9 8 9 9 9 9 10 10 10 10 10 9 9 9 8 7 7 9 8 8 8 7 8 9 9 10 10 11 11 10 8 7
3 4 3 2 0 1 2 1 1 2 4 3 1 2 6 0 1 5 4 3 1 1 1 4 0 1 2 8 3 8 9 9 8 7 9 9 8 7 7 8 6 5 7 7 7 6 5 4 3 3 2 3 2 2 2 2 5 8 8 8 8 8 8 9 10 9 9 9 9 9 9 7 7 7 9 7 9 8 8 7 8 7 7 7 7 7 6 7 8 9 10 10 11 11 11 10 8
1 2 1 3 1 2 2 2 4 1 3 2 2 4 7 3 1 0 1 2 4 3 1 2 2 2 3 2 3 6 9 10 8 10 9 9 7 7 6 7 6 6 6 7 6 6 6 5 4 3 3 3 2 2 2 1 2 6 6 8 9 8 8 8 9 9 8 8 7 8 8 5 4 4 5 4 6 4 6 7 7 6 5 5 5 6 5 6 7 8 9 10 10 10 8 9 9
1 1 4 1 2 3 4 4 7 1 0 2 4 5 6 3 1 1 2 4 2 0 1 5 1 1 2 3 1 6 11 13 12 13 11 10 8 6 6 7 8 7 7 6 7 7 7 7 6 5 4 4 3 3 2 1 1 2 3 3 4 5 7 7 6 4 5 4 6 5 4 4 3 3 3 5 3 4 4 7 7 6 7 6 4 5 5 6 6 8 9 9 9 9 8 5 5
3 1 2 5 4 4 4 2 3 0 3 0 2 3 5 6 8 3 3 1 1 1 4 1 2 3 4 2 7 10 12 12 13 12 14 13 12 11 8 8 8 8 8 7 7 8 7 7 7 7 5 5 4 4 2 2 2 1 2 3 3 5 5 4 4 4 4 4 3 3 3 3 3 3 3 3 3 5 4 6 6 6 5 6 7 8 7 6 6 8 9 8 8 7 5 3 3
1 2 1 2 5 4 4 2 1 4 0 2 2 1 1 2 5 1 3 4 1 7 5 2 4 5 1 4 6 10 12 13 12 13 13 12 11 9 9 11 10 10 8 8 7 6 6 8 9 7 7 6 5 3 3 3 2 1 2 2 3 3 3 4 4 4 4 4 4 4 3 3 3 3 4 5 4 3 4 5 6 6 6 6 6 4 6 6 7 7 7 7 5 3 3 4 3
1 1 2 1 2 1 0 2 4 4 2 2 2 1 3 2 4 5 4 5 6 6 6 10 12 9 8 8 9 10 12 13 13 12 11 11 12 10 10 9 10 9 7 6 6 8 9 8 7 7 7 7 6 5 5 4 3 2 2 2 3 3 3 3 4 4 3 3 3 4 3 3 2 2 2 2 2 3 2 2 2 2 2 2 4 2 2 2 3 3 3 4 3 3 4 4 4
2 3 2 0 0 1 4 3 1 2 3 1 1 4 6 1 0 4 10 9 10 11 12 10 7 9 12 12 11 9 12 14 14 13 14 15 16 14 10 8 6 6 6 7 8 8 9 8 8 6 8 8 8 7 5 4 4 4 4 4 3 2 3 3 3 3 4 3 3 3 3 4 2 2 2 2 2 2 3 2 1 1 2 1 1 1 1 2 2 2 2 3 3 2 2 3 3
2 1 1 0 1 1 3 4 2 0 1 2 1 4 3 6 2 3 7 12 2 2 2 9 5 10 12 13 13 12 13 15 15 16 16 15 15 13 11 9 9 9 8 8 7 7 8 8 8 6 8 8 9 6 5 5 5 4 4 4 4 4 3 3 4 4 5 3 3 4 5 3 3 2 2 2 2 2 3 2 1 1 1 1 1 1 1 1 2 2 2 2 3 3 4 3 3
1 2 1 1 1 3 4 5 3 3 5 5 4 1 4 4 7 1 6 7 0 3 3 5 6 6 6 12 13 17 17 17 18 16 15 17 15 14 11 11 9 7 8 9 8 7 8 11 9 9 9 8 7 7 7 6 5 5 5 5 5 5 4 4 4 4 3 4 3 3 3 5 4 3 2 2 3 1 2 2 1 1 1 0 0 1 0 1 1 1 1 2 3 3 4 4 4
2 1 1 4 2 2 5 4 4 3 6 3 1 3 5 7 4 2 9 10 2 4 3 4 8 8 7 11 14 12 13 12 11 11 9 9 11 11 10 9 10 9 10 9 8 9 9 9 10 12 10 10 7 7 7 6 6 6 5 5 6 5 5 5 4 4 4 4 3 4 4 4 3 4 4 4 2 3 2 1 1 2 1 1 0 1 0 0 1 1 1 1 1 2 2 4 4
3 2 1 3 3 5 4 5 2 1 2 2 3 5 3 2 2 3 11 3 3 3 4 4 7 9 11 12 13 13 13 14 12 11 13 9 9 12 12 11 10 11 10 10 9 9 8 9 12 12 11 10 8 8 6 7 7 8 7 6 6 5 5 5 4 5 5 4 4 4 4 4 5 5 4 3 4 4 3 2 2 2 2 1 1 2 2 1 1 1 2 2 2 3 3 3 2
1 1 2 6 4 5 2 2 3 2 1 3 5 3 1 1 3 8 1 2 5 5 5 3 6 11 11 10 10 10 12 14 15 11 6 7 10 13 12 11 11 11 9 10 9 8 8 9 10 10 10 9 8 9 7 7 7 7 7 6 5 6 6 5 5 5 5 5 5 4 4 4 5 4 5 4 4 4 4 3 4 2 2 2 2 4 2 3 2 2 2 2 3 3 4 3 2
1 2 4 7 9 5 2 2 5 0 3 4 4 2 1 2 1 12 2 1 2 8 5 6 5 6 9 9 10 9 10 10 8 8 14 13 12 12 12 12 11 10 11 10 8 7 8 10 10 10 10 9 9 9 8 7 7 7 7 6 7 6 5 5 5 5 5 5 4 5 4 5 4 4 5 5 5 5 4 4 3 3 5 3 4 3 3 2 2 2 2 2 2 2 3 3 2
1 1 5 6 9 9 3 4 1 3 2 5 4 1 1 1 7 11 3 2 2 5 6 7 8 6 7 7 7 8 10 9 8 9 12 12 9 10 13 11 11 11 8 9 9 9 10 10 9 9 9 9 10 10 9 8 7 6 7 7 6 6 6 5 5 6 5 4 4 5 5 5 5 5 5 6 6 5 5 4 4 5 5 3 3 3 2 2 2 3 4 1 1 1 3 5 2
0 3 3 6 5 7 5 1 0 4 2 5 1 5 5 9 14 3 1 6 5 5 4 6 7 7 6 6 7 8 5 6 10 12 10 10 9 9 11 10 11 10 9 7 8 10 9 7 8 7 9 10 11 9 8 7 7 7 6 6 6 6 6 6 6 5 5 5 5 5 5 5 5 5 5 5 5 5 5 5 5 5 5 3 3 3 4 3 3 3 5 2 4 4 5 4 4
3 1 1 3 1 7 1 1 0 3 2 4 1 4 6 6 12 2 3 5 9 8 7 7 8 7 6 7 7 8 8 9 11 11 10 10 8 8 10 8 9 9 7 8 12 11 9 9 8 7 9 9 10 10 10 9 7 7 6 6 6 7 6 6 6 5 5 6 5 5 5 5 6 5 5 6 5 5 5 5 5 6 4 4 5 4 4 3 3 5 3 4 4 4 4 4 3
1 2 6 1 6 4 6 3 4 5 0 2 4 5 8 9 9 3 4 5 6 7 7 8 7 8 8 7 9 8 10 9 8 7 9 8 8 8 8 10 9 9 11 10 9 7 10 9 9 9 9 11 10 10 9 9 8 8 7 6 6 6 6 7 6 6 6 5 6 5 6 6 6 6 5 5 5 5 5 6 6 5 5 5 5 4 4 4 4 4 4 4 4 5 3 4 2
2 5 0 6 1 4 5 3 4 6 1 0 6 6 3 6 5 1 1 6 7 7 6 7 8 8 8 8 8 9 8 8 8 10 10 9 9 8 8 9 10 11 10 9 10 9 9 9 9 10 11 11 10 10 9 8 8 7 7 7 7 7 7 7 6 6 6 6 5 6 6 6 6 6 6 6 6 6 5 5 5 5 4 4 4 4 5 6 6 5 4 3 3 5 3 5 5
2 2 2 2 4 1 4 4 2 3 4 4 2 4 6 4 3 1 1 4 4 6 9 8 8 7 8 7 7 9 9 9 12 13 14 12 11 11 10 9 10 10 9 10 10 11 12 10 9 10 9 10 10 10 10 9 8 7 7 7 6 7 7 6 6 6 6 6 5 6 6 6 6 6 6 6 6 6 5 5 4 4 4 4 4 3 5 1 1 1 3 2 4 4 4 5 6
5 3 3 6 3 4 4 2 1 3 0 4 2 6 9 12 9 6 1 4 6 9 7 3 5 6 7 8 8 9 9 10 14 12 12 12 11 10 10 9 9 9 9 10 10 10 8 8 8 10 10 10 10 9 9 8 7 7 6 7 7 7 5 5 5 6 6 6 6 6 6 6 6 6 6 6 5 5 5 5 5 5 5 5 5 4 4 4 4 5 6 6 2 4 5 5 5
8 7 8 3 6 8 5 4 3 3 3 5 5 7 8 13 14 10 2 4 7 9 4 5 5 6 6 7 8 8 9 13 12 10 8 8 10 9 10 9 9 9 9 10 11 10 10 9 8 9 10 10 8 7 7 7 7 8 7 5 6 7 6 5 5 6 5 6 6 6 6 6 6 7 6 6 6 5 5 5 6 5 6 6 5 5 4 4 7 6 7 6 5 3 5 5 2
6 5 4 7 4 4 3 3 2 1 1 5 6 5 8 12 12 11 3 3 3 4 6 9 8 7 8 8 9 10 11 16 10 8 6 6 9 10 9 8 9 8 9 10 11 11 11 12 10 13 10 9 9 8 8 9 9 7 7 9 9 6 6 6 6 6 6 6 6 7 7 6 6 6 7 6 5 5 5 5 5 4 3 4 5 6 7 5 5 2 2 2 4 3 3 3 2
9 6 4 5 1 3 2 2 2 4 3 3 1 2 9 13 12 8 2 4 6 8 9 10 11 10 8 7 9 11 14 6 5 6 6 8 9 9 9 8 8 11 12 11 13 13 12 12 13 12 9 10 10 10 10 9 9 9 7 7 5 5 6 7 7 5 6 6 7 7 7 7 7 7 7 8 7 7 6 5 6 5 3 4 5 4 3 3 4 4 3 3 2 4 4 1 2
4 7 3 1 3 2 6 3 3 2 2 7 4 4 8 11 13 12 5 6 6 7 9 9 10 9 8 8 10 12 7 10 7 8 6 8 9 9 9 10 10 13 12 13 13 12 12 12 12 10 10 10 10 10 10 10 8 8 8 6 8 4 5 7 7 7 7 8 8 7 7 7 7 7 7 7 7 6 6 6 6 6 6 6 5 5 5 6 5 5 4 5 3 2 4 1 3
6 5 5 7 1 2 5 0 3 1 2 2 0 2 7 9 9 13 8 8 8 8 8 11 8 9 10 14 14 10 8 10 12 11 10 9 9 9 9 10 12 11 12 11 11 13 12 12 11 12 10 10 10 11 11 9 9 7 6 6 6 7 6 5 6 4 6 6 6 5 5 5 6 6 5 6 7 7 6 6 5 5 7 5 5 4 4 5 5 5 4 5 4 4 2 3 3
0 4 3 4 1 1 0 3 5 3 2 1 2 6 7 7 11 10 5 5 6 8 5 7 7 8 10 6 4 8 13 13 13 10 9 9 9 12 14 14 11 12 13 12 12 13 11 14 13 12 11 11 10 10 11 8 6 5 4 2 3 3 2 3 4 5 6 6 6 6 5 5 6 6 5 6 5 7 7 8 7 6 5 4 5 6 6 7 6 5 7 6 6 6 5 3 1
4 2 4 5 3 2 5 5 7 7 5 2 1 4 8 4 7 11 9 1 4 6 7 11 11 10 7 8 12 10 10 10 13 14 12 11 12 9 7 8 11 12 13 14 13 14 13 12 12 12 11 10 11 10 10 9 9 9 8 8 8 6 8 7 9 9 6 6 6 3 5 6 5 5 5 5 5 5 6 6 6 5 5 6 5 5 5 3 4 6 4 3 4 5 6 3 1
6 5 9 5 3 1 4 6 5 4 2 1 2 5 7 3 6 4 5 6 10 5 5 11 10 8 6 10 11 11 12 12 10 11 8 7 11 10 10 12 14 14 15 11 11 13 13 12 11 13 13 11 11 10 11 10 10 10 12 12 11 11 10 8 5 4 7 5 5 6 6 5 6 6 5 6 5 6 6 6 6 7 6 4 4 4 4 5 4 2 2 3 4 3 3 4 4
4 3 10 7 3 2 2 2 2 4 2 7 2 3 5 7 11 5 2 4 9 9 8 9 10 8 10 10 12 12 13 12 12 14 14 12 10 12 15 16 14 16 14 11 13 12 13 14 13 13 12 11 10 10 11 12 12 11 11 11 10 11 11 10 7 6 5 6 7 7 5 5 6 6 6 6 6 6 6 6 6 5 5 5 4 4 5 4 2 1 2 3 3 4 4 4 4
2 3 10 10 8 2 2 2 1 2 3 8 2 0 2 6 6 2 0 6 9 11 9 8 10 11 11 12 14 14 15 15 12 12 12 12 14 14 14 13 14 12 10 13 13 12 12 12 12 10 12 11 10 11 12 12 11 12 12 11 11 9 8 7 4 5 6 6 6 5 6 6 6 6 6 6 6 6 6 6 6 5 4 4 3 3 2 3 3 3 2 2 3 3 3 3 2
1 5 7 5 6 3 1 1 3 3 1 12 6 2 3 11 3 3 1 3 9 8 9 9 10 12 12 13 13 13 11 9 7 10 10 9 10 10 9 7 6 12 11 10 9 9 9 10 12 12 13 11 10 11 11 12 12 11 11 11 12 10 6 4 5 5 5 5 6 6 6 5 5 5 5 5 5 5 6 6 5 4 4 3 4 3 4 4 3 2 3 3 2 2 2 4 4
3 6 6 2 4 3 3 3 1 3 5 11 4 5 3 9 5 9 8 8 6 7 7 6 6 8 9 10 12 11 10 7 7 8 10 11 9 9 7 11 13 7 7 8 9 9 9 10 11 12 13 10 10 12 12 13 12 12 12 12 13 12 9 8 7 6 4 4 6 5 5 5 4 5 4 4 5 5 5 4 4 5 5 5 5 4 4 3 4 3 2 2 3 3 3 2 1
8 2 3 5 1 2 4 2 2 1 12 1 4 3 6 10 4 6 7 3 3 8 9 11 10 11 12 7 7 8 7 7 7 7 10 10 7 8 6 11 11 10 7 9 10 8 8 9 10 12 11 11 10 11 12 13 12 12 12 12 13 11 10 10 10 10 9 9 8 7 4 3 3 3 3 4 4 4 5 5 4 5 6 5 6 4 4 3 3 3 3 3 2 2 3 4 3
5 5 5 9 2 3 3 1 4 11 8 0 3 4 1 18 8 7 5 7 6 5 8 10 9 9 9 7 7 6 5 5 7 8 9 8 9 10 10 12 7 8 11 11 11 10 10 10 12 13 13 11 11 11 13 13 12 13 13 12 11 10 10 11 10 10 9 9 7 6 6 6 4 4 5 6 5 7 6 6 6 5 5 5 6 6 4 4 4 4 4 3 4 5 4 4 5
9 10 8 8 6 5 7 6 2 5 4 2 3 1 7 6 4 14 13 13 14 10 9 10 9 10 11 9 5 6 7 6 9 9 8 9 9 9 9 9 9 9 10 11 10 11 11 11 12 14 14 11 10 11 13 13 13 13 12 12 11 10 10 10 9 9 9 8 8 8 9 9 9 8 8 7 7 6 4 4 5 5 5 6 6 6 6 6 5 4 4 5 4 3 4 6 6
11 3 5 5 4 5 6 5 11 8 6 1 3 2 9 3 3 1 8 6 8 5 6 7 7 9 10 8 8 9 11 10 8 9 10 10 9 7 7 7 7 7 7 7 7 9 8 10 11 13 11 10 11 12 11 13 12 11 11 11 10 9 10 10 9 8 9 9 7 8 7 6 8 6 7 5 5 5 5 4 4 6 6 6 7 6 7 6 5 4 4 4 4 3 5 5 5
4 5 1 3 11 5 6 3 1 3 2 2 3 8 2 5 4 8 5 7 7 7 8 5 10 8 4 8 10 10 9 9 6 7 9 9 7 6 6 6 6 6 6 6 7 7 8 10 10 12 14 13 13 12 12 12 12 10 10 11 11 10 8 8 7 6 6 8 9 9 9 8 7 7 5 7 4 6 7 5 4 4 4 6 6 6 7 5 5 4 4 4 5 2 6 5 5
5 6 11 8 2 4 3 1 0 1 3 9 3 8 8 6 7 11 3 2 7 4 6 6 9 8 3 8 9 9 11 9 6 7 7 7 5 5 5 5 5 5 6 8 8 8 10 10 9 11 10 7 10 11 12 10 10 10 11 10 9 9 10 10 9 9 8 7 7 7 8 7 6 7 7 6 7 5 5 6 6 5 4 6 6 5 6 6 5 5 4 4 5 4 6 4 5
7 9 8 3 1 2 2 3 1 1 5 7 3 11 5 2 12 2 3 6 8 6 6 6 5 5 6 9 9 9 9 7 5 6 4 4 4 4 4 4 4 4 5 5 6 5 5 6 7 9 8 10 9 10 10 10 11 11 10 11 10 11 10 9 8 9 7 8 6 6 6 7 7 7 8 6 7 6 6 6 7 5 5 5 6 5 5 6 6 4 4 5 4 6 6 5 5
8 7 5 9 6 6 1 1 6 3 4 6 3 2 6 10 10 3 4 1 7 11 8 6 9 5 5 8 10 8 6 7 8 7 5 4 5 5 5 5 3 3 3 4 4 4 5 5 5 7 9 9 9 8 7 7 8 9 9 11 11 9 7 7 7 7 8 9 9 8 9 8 7 7 7 7 7 6 6 5 6 6 5 6 5 6 6 6 6 6 5 5 3 5 6 5 4
1 2 3 1 3 0 4 7 2 4 6 1 7 4 12 6 7 5 9 12 10 8 8 9 7 7 6 6 7 9 9 7 7 7 5 4 4 4 4 4 4 4 4 3 3 3 5 5 6 6 5 5 6 8 8 9 9 8 7 6 6 7 8 9 9 9 8 9 9 9 9 9 9 7 7 7 7 7 7 7 6 6 6 6 7 5 6 7 5 5 5 5 3 5 6 6 5
3 3 5 3 1 1 3 1 4 3 3 3 2 7 7 4 8 11 11 11 12 16 8 3 6 8 8 6 8 9 8 8 7 5 6 5 5 4 3 3 3 2 2 2 3 4 4 4 5 6 8 8 9 9 9 9 8 8 9 10 9 8 8 7 8 9 10 9 8 9 9 9 8 7 7 7 7 7 7 7 7 6 7 7 7 6 5 6 7 6 5 6 5 6 7 5 6
8 9 9 10 8 7 5 8 2 1 1 6 1 13 7 4 2 8 6 8 9 3 0 5 9 8 7 7 7 6 9 7 6 5 5 5 4 4 3 2 1 1 1 2 3 2 3 4 5 6 6 8 9 8 9 8 8 8 9 9 9 7 9 8 9 9 9 9 9 8 9 8 8 6 7 8 8 6 7 7 8 6 6 7 7 7 6 6 7 7 6 5 6 7 7 6 6
Wind_Direction
323 336 331 132 57 108 51 359 130 321 58 316 344 42 175 196 220 79 159 7 196 276 238 36 58 109 188 203 176 154 202 128 197 132 212 228 189 128 139 134 137 119 124 139 118 83 68 100 116 128 123 112 116 116 122 112 110 109 110 102 96 93 94 97 94 92 92 89 89 86 84 83 83 82 80 81 82 83 82 86 90 88 83 81 79 78 81 82 81 79 78 78 78 78 78 78 77
307 327 41 4 333 40 294 118 95 351 39 49 239 100 250 291 89 200 182 189 207 144 112 106 88 87 57 89 117 141 42 2 181 150 83 132 126 132 145 142 141 131 133 137 112 96 78 101 125 132 123 122 116 114 106 119 118 119 118 98 96 94 96 93 92 96 92 90 93 90 94 94 90 87 87 90 89 88 90 87 86 89 86 83 82 81 81 82 82 81 79 78 79 78 78 78 77
309 30 37 21 8 73 87 33 318 61 67 12 275 211 339 151 187 204 213 213 165 143 145 101 97 61 10 2 47 26 212 90 121 189 117 146 134 163 147 139 133 128 132 138 120 107 92 110 126 132 134 127 121 122 120 110 121 117 104 104 102 98 92 95 92 89 92 100 99 96 91 89 90 88 88 85 85 85 86 88 88 88 87 85 83 82 82 83 82 81 80 79 79 80 79 77 78
112 34 162 72 272 36 54 23 89 121 19 225 305 282 199 185 218 200 235 202 164 125 274 10 60 256 117 50 143 98 67 130 203 141 134 167 173 148 140 133 126 121 119 126 123 106 95 111 133 139 147 138 130 128 129 120 108 110 115 113 109 105 97 98 100 100 105 97 96 102 99 97 97 98 98 96 93 91 91 93 90 86 84 84 82 81 80 84 86 82 81 80 80 80 80 80 79
86 4 89 101 100 14 100 119 136 104 1 201 39 271 252 206 186 189 174 180 190 112 14 156 78 339 230 127 151 146 219 108 139 136 133 119 113 146 136 129 125 125 128 130 115 108 102 122 127 138 150 138 132 129 127 124 102 105 108 103 109 106 104 101 108 103 103 107 103 95 98 94 94 94 92 90 89 88 88 90 91 89 87 85 85 85 82 83 84 86 83 80 79 79 80 80 79
46 43 3 78 8 170 62 45 12 228 212 152 173 235 218 202 166 184 162 223 248 268 223 156 160 194 24 331 185 95 180 140 184 82 156 137 142 146 136 131 125 126 131 119 114 115 129 117 126 141 142 138 137 135 133 129 127 112 105 105 114 112 110 110 108 110 108 106 105 103 101 100 96 96 94 92 91 89 90 91 94 94 92 88 87 86 85 83 84 83 82 80 80 78 78 80 80
260 41 2 29 25 47 159 137 235 205 280 161 214 227 194 186 181 136 168 131 264 28 137 234 131 104 68 306 26 184 227 180 127 190 133 137 137 141 134 130 128 129 128 127 122 121 137 120 133 142 137 126 127 135 135 128 142 135 122 120 121 121 116 118 116 112 109 109 112 105 99 95 93 94 96 96 96 95 96 99 100 100 98 94 90 83 82 82 80 80 79 79 79 80 80 83 83
53 135 329 106 283 44 62 159 244 160 269 167 219 243 214 167 146 150 180 132 214 195 80 192 257 101 203 25 172 260 357 273 176 124 120 138 140 137 134 132 134 133 130 129 127 132 129 126 95 131 145 145 144 135 134 133 139 127 116 133 125 116 112 118 118 113 115 117 112 106 105 100 98 95 94 95 94 96 93 93 97 98 93 92 88 84 81 82 83 84 85 83 82 82 83 84 84
3 83 265 70 45 36 55 291 263 244 284 293 284 233 227 160 150 142 171 238 36 127 150 221 242 85 228 41 140 272 309 3 115 120 132 138 150 145 137 139 143 138 136 132 132 129 121 113 106 131 142 151 138 131 138 138 140 132 129 148 123 122 118 118 115 115 112 110 113 113 109 104 104 103 100 100 98 98 98 97 99 101 101 97 92 90 85 82 85 89 90 89 88 85 84 85 85
42 44 284 126 130 267 2 299 40 197 223 243 245 249 154 160 148 121 153 109 202 131 207 274 212 112 135 124 323 14 81 103 121 120 138 145 147 144 138 142 144 142 139 136 132 130 140 124 104 122 139 146 136 126 139 142 141 136 139 148 124 125 124 126 119 116 114 114 114 109 108 106 103 103 101 101 103 102 103 103 102 105 104 99 97 93 87 86 88 92 91 89 89 89 88 87 89
350 17 135 79 24 89 217 263 269 314 284 311 294 244 164 124 124 127 115 160 95 145 235 251 43 112 94 223 208 253 294 173 135 147 148 147 146 148 140 140 143 148 145 139 139 134 129 113 100 108 140 144 133 126 117 130 140 140 148 157 135 135 143 137 118 116 128 120 112 109 111 109 105 102 102 102 104 103 103 104 105 107 109 106 103 97 90 87 87 87 87 85 85 87 88 90 92
309 23 12 99 178 161 238 178 276 282 297 327 174 110 183 130 108 135 149 129 202 160 185 171 186 144 63 14 302 323 67 184 161 147 145 145 149 142 132 134 146 150 146 141 138 134 116 97 81 93 131 137 140 135 124 123 131 137 144 160 147 130 125 114 103 107 122 132 122 116 112 106 105 104 104 102 100 106 105 106 109 109 110 110 107 103 96 93 95 90 87 86 86 90 93 94 94
105 89 79 96 228 259 155 211 264 303 325 282 171 172 132 116 193 185 160 87 123 133 290 214 137 84 119 175 253 321 153 206 187 148 146 152 145 132 121 129 150 149 144 141 145 146 125 107 88 78 104 128 138 131 121 130 123 131 152 140 131 99 79 121 110 105 85 76 103 116 109 94 86 82 90 111 109 105 105 102 108 109 111 114 111 106 99 91 91 91 88 85 82 84 91 94 95
114 186 128 171 54 111 149 234 320 349 295 247 271 139 164 136 238 165 127 142 216 171 259 187 145 131 86 33 288 202 212 188 178 152 142 140 132 129 126 131 150 152 148 148 157 155 141 121 96 79 81 93 115 115 115 127 127 115 105 114 96 83 80 94 100 96 90 91 87 85 85 83 80 74 66 60 67 74 68 91 110 114 115 113 113 109 93 85 85 86 87 83 80 78 81 90 95
310 146 83 114 50 55 235 84 257 154 261 203 185 136 164 245 112 140 158 159 235 216 322 89 172 120 218 155 258 204 190 180 157 148 136 129 128 124 126 132 143 150 153 150 165 163 148 128 103 90 83 86 93 100 106 127 126 106 108 113 106 95 97 103 103 98 99 98 96 91 86 84 83 80 75 72 68 64 57 47 63 109 115 110 109 106 88 74 73 75 77 74 71 69 70 76 87
145 85 76 114 183 138 252 171 141 88 266 187 326 181 139 4 169 129 241 153 221 302 128 195 112 206 190 165 224 186 162 150 150 142 136 134 126 119 128 139 140 153 159 155 168 177 158 142 128 107 95 93 95 87 94 115 126 115 118 116 111 107 104 107 106 104 100 98 97 96 89 81 76 77 77 73 71 68 63 58 55 62 97 111 116 115 83 71 65 66 67 66 62 59 56 55 63
124 78 50 39 214 162 247 171 152 257 243 265 289 164 164 201 223 274 110 89 122 196 346 267 209 30 180 187 283 158 139 135 139 145 137 135 130 135 137 149 150 154 165 169 177 174 166 157 144 136 123 115 99 93 72 61 121 121 120 121 118 117 116 108 104 100 96 93 94 93 89 85 82 80 76 81 73 69 69 66 54 45 63 102 110 125 84 59 56 59 61 62 59 53 47 45 38
41 64 111 210 199 143 207 180 192 191 358 239 214 215 144 204 186 185 105 36 71 17 255 304 297 286 247 269 283 141 136 143 155 154 158 147 149 153 156 163 161 172 173 180 186 174 179 173 170 158 146 140 136 139 141 101 52 100 115 115 115 118 115 110 108 110 103 96 97 93 95 95 89 88 90 89 84 80 76 79 75 68 55 47 74 126 90 52 46 51 53 52 54 55 51 46 34
79 124 104 223 178 235 158 206 219 93 303 264 263 267 193 210 136 208 140 255 110 158 263 21 303 308 17 84 126 136 143 150 163 167 164 163 166 167 160 162 178 169 178 184 188 185 182 175 182 180 164 160 152 151 143 145 122 82 112 115 112 119 125 121 120 114 116 115 104 104 103 103 99 93 97 104 96 86 88 88 87 76 66 55 43 38 48 39 44 45 47 46 44 49 49 42 33
203 119 253 255 214 262 229 188 247 218 265 315 191 260 150 246 153 136 200 176 133 195 199 278 252 229 237 137 147 148 151 162 170 175 170 167 169 167 165 171 183 188 179 183 179 180 174 182 186 182 180 158 161 156 157 159 158 123 132 123 120 122 123 129 127 125 129 127 125 120 118 111 98 94 88 87 87 82 71 69 74 71 64 50 44 46 33 31 31 32 40 42 32 29 44 39 31
254 103 185 222 189 333 302 163 246 261 234 272 182 38 188 259 192 150 165 121 245 256 234 185 200 203 178 168 160 160 159 166 175 182 174 163 178 181 183 179 183 185 181 166 171 185 187 186 184 184 185 178 166 165 164 176 160 145 155 144 143 143 139 129 134 137 142 139 134 134 132 120 108 95 95 90 93 94 90 82 72 65 56 52 28 51 23 5 26 14 7 29 31 18 19 16 18
130 210 190 198 354 294 280 332 358 293 298 216 159 147 228 88 50 179 157 182 216 209 221 216 206 171 158 165 170 167 167 173 180 186 190 180 181 185 182 180 177 176 165 177 185 186 191 184 186 179 184 187 185 180 175 159 165 179 175 173 162 170 161 160 152 152 153 154 149 139 128 122 113 107 110 118 112 117 122 116 100 79 82 89 42 45 23 15 7 19 23 15 1 24 19 8 25
261 329 360 204 184 242 276 331 351 127 319 159 150 225 95 175 223 179 181 208 226 289 242 196 185 180 172 160 158 172 174 181 185 189 188 185 188 189 186 182 179 184 184 192 183 186 187 185 187 177 186 187 192 171 165 165 189 187 177 173 174 194 180 172 186 176 176 167 159 151 141 145 138 138 141 149 168 139 165 164 158 93 124 107 45 57 31 18 21 14 25 359 338 7 350 352 2
143 225 9 313 176 243 271 290 296 275 191 235 215 42 176 174 223 137 202 233 74 328 284 183 149 131 144 159 177 176 182 184 190 190 188 191 191 192 186 185 187 186 188 190 187 185 184 190 187 179 191 190 186 174 180 188 186 184 187 176 192 189 178 196 194 193 175 178 174 172 160 160 159 155 170 175 204 156 206 200 156 142 238 117 83 71 54 4 31 32 30 10 6 3 347 330 338
220 253 300 283 275 246 287 284 278 235 232 231 128 187 231 193 201 93 238 228 290 6 70 121 131 140 163 174 180 186 187 190 191 192 191 195 197 191 190 191 190 186 194 194 191 188 190 187 182 190 188 188 183 175 188 191 190 192 182 188 194 186 193 198 191 179 187 184 184 177 166 164 166 168 178 193 157 201 215 203 189 217 216 225 93 293 133 6 351 7 18 352 338 303 321 308 336
181 203 311 289 309 325 317 330 349 273 290 154 167 240 296 197 100 260 248 246 182 96 75 112 136 150 173 186 188 184 189 193 191 189 194 190 191 192 198 196 193 198 198 192 192 196 190 186 189 194 190 187 182 181 190 188 191 195 197 195 192 181 199 192 180 186 195 183 193 190 187 174 178 178 188 174 172 208 208 202 208 228 216 214 173 242 202 169 239 314 312 303 305 306 312 302 345
95 309 309 308 302 352 346 6 297 333 242 189 188 232 221 309 125 260 327 219 132 97 114 127 160 172 182 186 193 196 190 194 194 185 171 190 196 198 198 197 199 200 192 199 198 198 190 187 194 195 190 184 180 188 186 192 188 197 194 191 186 196 188 183 192 193 192 195 195 189 192 187 179 183 181 182 194 196 200 198 221 202 230 224 199 233 203 208 206 224 251 273 290 294 288 297 322
301 284 317 289 317 328 275 325 277 48 295 162 185 212 261 302 89 238 211 225 181 142 151 165 185 190 190 193 194 198 202 202 190 180 193 190 199 198 199 199 199 198 200 201 199 196 193 196 196 194 192 184 186 190 188 191 195 197 192 189 198 196 179 193 195 196 203 197 189 187 190 195 188 193 188 185 192 192 200 205 207 190 227 219 207 220 229 226 227 245 239 238 248 248 269 280 241
258 30 277 329 340 319 343 304 314 125 255 159 164 166 273 202 219 237 173 129 123 140 163 180 192 199 202 202 200 201 207 196 191 201 206 204 199 198 204 200 197 201 204 199 198 197 199 195 199 197 194 190 192 194 193 196 195 192 188 195 196 186 190 191 201 203 203 197 190 187 190 193 193 192 197 193 193 195 195 197 203 216 226 205 206 224 232 231 235 260 273 259 288 291 296 277 255
86 40 103 337 352 299 284 3 190 137 246 156 161 258 251 229 238 220 198 128 114 135 172 198 205 206 203 202 205 214 214 204 209 210 206 206 201 200 207 200 199 201 196 198 194 202 196 197 196 196 196 196 196 197 195 195 196 195 192 192 187 182 191 194 206 205 198 195 192 192 189 192 195 197 188 197 187 190 193 197 204 221 222 198 190 189 220 216 236 245 251 260 261 263 273 286 317
170 216 82 225 40 261 280 130 296 167 176 155 107 227 275 264 253 206 188 152 151 188 202 197 207 208 204 204 210 214 217 213 215 212 212 210 207 206 207 200 198 199 192 199 203 197 192 195 192 201 194 201 197 201 197 198 194 195 194 194 190 186 190 197 201 199 200 200 188 196 193 192 198 195 193 188 191 186 190 202 206 221 196 187 191 196 195 205 213 239 227 233 256 253 249 270 274
137 101 244 340 208 288 300 168 150 185 333 111 132 266 238 257 261 199 200 179 168 201 205 206 205 208 206 204 212 218 221 217 227 228 222 217 210 211 203 207 198 198 201 201 201 193 201 199 193 199 193 202 201 202 201 198 195 197 198 197 191 189 190 197 198 198 201 195 191 197 197 196 194 196 192 187 188 191 193 200 215 211 192 181 197 185 176 210 225 239 223 208 238 263 249 271 214
351 196 299 213 88 271 340 266 183 161 118 331 183 218 314 289 287 320 262 182 186 206 217 214 214 213 209 211 214 218 224 230 231 228 222 213 216 211 208 208 205 205 205 202 198 199 203 201 198 201 200 202 203 202 203 201 196 198 198 197 197 190 195 198 198 196 195 194 196 201 195 196 197 193 195 190 189 195 199 207 220 205 189 191 185 188 201 204 195 207 233 219 224 262 261 269 273
244 15 201 205 182 200 231 304 252 156 145 215 229 223 229 248 256 313 42 163 182 214 226 220 214 212 214 215 218 219 223 223 224 222 221 212 214 211 209 208 208 206 210 208 204 203 204 198 199 203 203 201 203 201 201 201 199 196 198 199 198 200 203 200 197 189 197 198 193 202 196 195 198 198 196 194 198 198 200 206 207 193 183 191 197 187 218 196 218 208 270 244 205 217 255 267 275
189 186 199 249 237 217 246 201 214 122 65 188 226 230 250 259 271 270 223 173 173 224 235 266 233 227 225 223 221 224 225 227 232 227 222 218 218 214 211 209 209 208 208 208 209 211 207 203 200 205 204 201 204 203 200 200 197 200 198 196 202 208 207 206 193 197 200 197 198 200 193 193 197 198 197 194 202 196 200 206 200 192 175 184 189 201 221 219 210 198 212 244 195 206 220 237 249
189 181 209 215 203 223 220 260 305 206 215 224 211 214 242 256 262 265 199 175 184 227 264 285 249 228 229 230 233 230 230 237 238 232 228 221 223 219 214 210 212 211 210 207 210 208 207 205 204 207 208 201 199 200 193 198 196 199 195 194 208 208 202 196 201 204 197 204 202 197 196 196 191 193 193 191 200 197 199 200 206 201 181 177 185 196 229 217 218 218 228 226 253 272 237 242 233
163 173 179 219 232 297 323 290 297 296 26 248 234 255 245 248 252 258 221 145 221 247 247 242 242 232 225 226 227 231 232 234 232 232 228 222 223 221 219 210 214 214 215 212 211 211 206 205 199 211 203 197 193 195 198 198 201 198 203 204 208 195 192 195 205 202 201 204 199 204 199 196 190 190 187 174 199 207 210 207 205 220 178 180 193 204 211 219 221 225 255 185 224 261 284 215 219
158 171 180 233 129 269 273 302 328 303 183 298 37 237 261 265 274 273 84 151 228 217 228 241 243 235 232 229 238 234 235 261 270 252 221 218 222 219 212 212 206 210 216 210 212 212 209 206 208 209 195 198 199 197 197 202 203 202 197 207 195 184 190 201 210 200 203 201 203 201 200 199 194 190 193 179 183 201 212 209 209 214 184 188 205 223 220 219 225 222 204 262 175 204 257 201 175
128 159 163 257 278 233 287 294 313 304 138 253 281 262 259 257 260 265 206 211 238 220 207 224 227 238 232 230 238 246 251 250 250 243 227 223 224 218 211 213 214 215 215 210 212 211 210 211 213 207 201 196 201 198 195 204 199 202 198 195 190 191 208 203 207 202 194 200 203 201 197 197 199 202 195 187 180 189 209 211 213 210 203 199 203 219 217 227 224 229 199 220 262 217 238 223 171
157 114 148 203 265 78 247 273 346 305 182 245 104 299 279 276 261 261 245 201 237 229 211 231 218 225 226 226 222 226 242 252 248 235 227 221 215 216 212 213 214 211 216 213 210 213 212 214 211 208 204 200 199 200 200 200 195 193 199 188 194 187 186 191 199 191 193 199 210 200 205 193 193 202 202 197 187 181 206 216 220 217 220 206 205 206 217 228 219 227 211 226 210 270 208 268 182
277 164 125 138 143 282 150 296 308 278 344 38 337 311 282 244 268 275 259 230 252 256 239 254 249 232 237 252 267 213 225 231 243 244 231 221 215 215 209 211 206 211 213 210 207 209 211 211 209 206 207 204 202 197 196 187 168 165 144 89 122 126 61 151 182 200 195 193 194 195 197 193 201 201 199 207 207 197 196 209 213 219 217 206 195 209 213 220 222 219 216 221 194 217 252 224 227
192 241 153 150 130 350 332 331 353 8 341 325 233 9 279 285 260 249 266 339 244 247 235 244 238 234 237 238 236 236 237 233 232 237 227 219 222 227 221 217 212 216 214 212 208 211 210 209 205 207 208 206 205 198 188 179 184 179 172 180 179 186 203 190 199 196 178 185 195 169 186 191 200 208 205 206 204 207 212 211 217 216 210 219 210 217 225 238 238 229 224 209 223 221 237 259 264
172 238 149 148 155 55 341 339 37 349 296 309 12 221 278 328 293 254 251 253 248 264 230 248 251 248 236 234 236 235 231 238 238 248 241 217 221 216 217 212 213 215 219 207 207 213 210 208 203 205 206 207 201 194 184 183 190 193 193 196 198 201 210 218 198 181 181 185 170 189 190 186 197 204 208 204 208 210 213 212 214 218 220 216 192 195 219 232 246 235 210 187 219 210 179 240 249
212 194 157 153 154 213 268 72 123 236 259 287 182 200 264 287 256 270 317 292 278 278 257 252 258 248 238 235 235 233 234 233 229 231 233 224 222 208 217 214 210 214 211 199 210 208 205 206 203 205 205 204 198 191 188 188 192 193 197 204 205 208 207 213 182 183 171 166 186 194 187 195 195 203 207 206 209 212 211 220 218 219 220 215 193 206 220 220 198 204 184 200 184 175 169 198 233
222 195 160 173 176 148 154 57 55 231 345 281 287 335 281 248 274 313 313 268 267 264 264 253 248 247 242 238 240 235 233 234 227 233 232 222 221 219 220 217 217 217 206 208 210 204 203 204 205 204 206 202 199 190 189 191 193 193 197 199 208 215 210 207 170 166 172 173 185 188 191 199 196 201 206 204 207 210 211 218 221 207 202 206 177 174 170 167 180 167 125 143 180 176 179 188 189
247 103 76 76 83 89 96 92 31 328 3 263 224 191 249 271 264 278 346 236 249 252 265 255 239 236 236 238 242 244 245 246 240 239 244 233 227 229 228 239 236 218 214 213 214 206 205 200 202 201 207 201 195 191 190 191 193 191 198 201 204 206 196 177 161 173 180 176 192 190 195 194 195 195 203 208 205 209 211 215 211 196 186 158 160 159 151 137 128 124 172 173 144 164 183 165 194
121 86 87 73 44 72 28 64 92 3 270 264 146 229 178 294 219 200 201 224 193 234 265 267 263 258 253 246 242 247 250 247 242 243 245 242 228 221 206 213 222 218 209 203 208 204 201 199 201 203 206 197 194 192 186 193 192 194 199 199 202 202 189 176 173 182 169 173 196 190 189 202 191 195 184 199 203 197 200 182 173 152 135 129 125 121 129 140 147 141 131 121 157 179 168 159 167
129 129 120 133 351 24 20 335 43 160 255 246 321 129 158 237 293 256 228 263 227 207 221 243 249 249 251 240 247 252 256 259 259 252 255 248 251 238 215 224 216 210 196 202 206 195 195 199 198 205 205 198 193 191 189 195 192 197 201 198 201 200 182 183 188 191 182 180 190 188 185 155 183 178 184 173 181 167 150 140 127 123 131 139 136 134 100 95 107 118 141 152 123 156 146 135 148
140 122 135 153 180 138 264 118 233 214 233 157 173 152 61 242 240 284 262 246 263 234 231 242 245 262 271 261 253 258 255 262 261 256 255 251 236 229 220 226 212 201 203 202 197 193 195 196 197 200 207 196 192 188 193 194 193 198 197 198 201 194 188 190 192 192 184 190 184 176 162 176 156 154 183 168 171 159 147 134 141 148 132 123 116 102 128 136 113 108 118 128 138 125 129 137 114
173 177 173 154 155 180 215 202 342 317 267 247 110 167 268 289 291 215 236 251 242 240 233 237 247 250 263 267 269 279 271 255 259 259 259 253 240 235 226 223 214 210 208 202 197 193 194 196 197 200 208 191 191 191 195 194 199 198 195 196 197 189 192 189 192 191 184 186 180 182 182 177 172 182 173 175 169 152 143 157 146 131 132 132 134 132 104 81 82 96 98 96 87 98 103 106 120
191 124 154 183 157 162 201 182 202 214 225 203 273 72 237 134 248 239 240 267 296 279 247 249 251 250 261 285 289 276 276 266 251 259 254 251 246 236 232 224 219 216 212 207 199 200 191 199 197 203 203 195 192 196 193 198 199 195 195 197 194 188 189 188 193 189 178 178 182 179 182 173 179 178 174 160 150 145 142 142 144 146 153 137 120 108 112 111 105 96 103 107 88 91 87 98 92
199 177 130 156 218 116 167 205 218 287 276 284 182 209 196 195 268 276 215 261 277 267 270 276 272 258 269 285 274 268 265 265 250 253 259 255 251 249 239 232 222 214 210 204 203 196 196 203 200 203 203 195 193 192 196 196 196 192 192 192 193 187 187 185 184 180 180 178 176 176 177 178 178 162 151 141 151 151 150 136 129 129 126 120 125 137 139 131 120 109 110 112 98 122 98 95 108
188 124 216 205 130 115 92 41 3 85 47 256 151 293 271 299 299 279 334 336 287 281 270 269 273 284 293 264 261 263 259 261 256 241 246 260 262 249 238 230 222 214 208 206 204 198 199 197 199 204 207 194 195 197 195 192 189 186 193 192 186 185 183 184 183 179 175 174 170 174 171 172 155 152 143 145 126 144 138 132 121 113 109 115 120 125 126 129 126 127 146 118 111 108 92 90 82
113 200 216 69 109 108 140 245 359 178 205 264 111 236 290 14 279 338 336 317 286 294 275 270 271 287 285 266 268 262 268 268 267 264 258 257 263 268 264 255 239 226 219 216 215 207 207 205 201 202 199 197 198 192 192 189 186 188 187 190 190 188 185 184 175 172 163 156 160 154 144 148 160 149 143 141 132 130 125 121 114 111 107 108 126 116 119 110 110 114 105 103 122 117 106 83 83
187 197 197 158 229 229 289 128 253 198 252 275 296 291 253 208 241 345 315 276 295 304 293 299 295 281 263 282 282 279 283 293 280 269 262 252 245 245 242 237 238 234 225 214 209 194 198 209 209 205 204 202 194 193 191 190 186 187 187 188 184 182 180 174 169 159 156 160 161 161 160 152 133 136 132 135 130 124 118 110 117 118 114 111 93 81 106 106 124 124 120 115 109 105 100 93 71
64 73 222 263 77 343 137 201 177 121 255 32 284 29 260 174 217 182 254 288 274 262 273 290 294 294 277 274 288 299 305 292 286 285 280 277 269 258 245 237 234 225 224 225 199 180 196 198 192 203 205 192 180 185 183 188 189 183 180 175 181 178 172 166 162 158 163 165 162 155 144 142 150 142 140 138 134 132 131 125 124 126 119 116 112 100 112 117 115 115 125 115 97 104 100 99 81
131 142 210 218 204 269 118 141 158 171 189 199 277 310 269 249 200 176 209 211 237 262 274 255 282 285 286 284 288 295 291 289 283 283 296 293 283 286 284 272 264 260 251 219 192 195 200 185 198 194 187 185 188 189 185 189 176 180 169 174 170 165 163 158 157 164 160 159 154 150 150 144 133 143 139 137 135 135 133 133 133 133 132 132 126 109 123 121 115 113 107 116 117 106 107 104 104
177 172 199 189 172 208 186 243 39 105 193 247 156 265 268 259 152 221 207 226 233 267 160 265 272 279 283 293 292 280 292 288 276 281 277 280 288 295 302 313 327 215 204 199 198 199 198 198 201 190 187 190 186 186 188 176 178 169 172 165 162 159 155 154 155 156 151 150 149 147 138 135 137 145 143 133 129 130 134 138 134 131 133 131 125 126 134 127 127 123 119 115 112 112 114 100 89